Dewpoint
40 40 40 40 40 38 32 32 33 35 36 37 37 40 42 38 36 35 34 32 32 32 31 31 30 31 31 30 31 30 28 27 28 26 25 27 26 26 24 25 27 27 27
40 40 38 38 36 33 32 33 35 35 35 36 37 41 38 36 37 32 30 32 31 31 29 30 30 30 31 30 29 28 27 27 27 26 26 24 24 26 24 26 26 26 29
40 38 37 33 33 32 33 35 34 33 33 33 33 34 34 33 29 27 27 27 30 30 30 30 30 29 31 31 29 28 27 26 26 28 26 25 24 24 24 24 27 26 26
40 38 33 33 34 36 35 32 31 30 31 33 32 31 29 27 28 27 28 30 30 30 32 31 31 31 31 30 29 30 27 27 27 27 29 27 25 22 22 24 26 26 25
39 35 33 33 35 35 34 32 31 31 31 31 32 29 28 29 29 29 28 28 29 30 31 30 29 30 31 31 29 29 28 29 27 25 24 26 26 26 26 24 22 26 27
34 34 33 35 35 34 33 32 31 31 31 32 28 29 28 28 28 27 28 28 29 29 30 31 30 30 30 30 30 29 28 29 27 27 27 28 27 25 26 25 24 23 24
34 33 32 35 35 33 32 32 32 32 32 29 29 29 27 27 26 26 28 28 29 29 29 30 31 31 30 30 29 28 29 29 27 27 29 28 28 30 29 27 25 23 24
34 33 35 35 33 33 37 36 33 31 29 29 29 29 28 28 28 29 30 29 29 30 29 30 29 28 28 28 28 28 29 29 29 29 28 29 30 30 30 29 27 23 22
34 34 35 33 34 38 39 37 36 30 29 28 28 28 28 28 29 29 28 29 28 28 28 28 27 27 28 28 27 28 27 28 27 27 28 29 31 33 32 31 30 27 22
34 34 33 34 36 38 38 38 38 28 27 27 28 28 29 28 28 27 26 27 27 26 27 27 26 27 27 26 27 27 25 24 25 27 27 28 31 32 32 33 32 30 28
35 34 34 36 36 38 37 38 31 27 26 26 28 28 27 26 25 25 25 25 26 26 27 26 26 27 26 26 25 23 21 20 24 26 27 27 29 31 31 31 31 30 30
35 33 34 35 36 38 37 34 31 28 27 26 29 26 25 24 23 24 24 25 24 26 26 26 26 26 25 25 24 23 22 20 23 25 26 27 29 31 31 31 30 30 29
34 33 32 33 37 38 38 35 29 27 25 25 23 22 22 22 21 22 23 24 25 25 25 24 25 25 25 24 24 23 22 21 23 25 26 28 30 29 30 30 29 28 29
35 31 32 38 38 39 38 38 28 26 24 22 19 20 21 22 21 22 24 24 25 25 25 25 25 25 24 24 24 23 20 21 24 27 31 31 31 32 31 30 29 29 28
34 36 37 38 39 38 38 33 26 25 23 18 18 20 22 22 23 24 24 24 25 24 26 26 24 23 21 22 24 22 21 24 25 27 27 29 31 32 31 31 30 29 27
35 35 36 38 38 37 36 27 24 23 19 19 20 22 22 23 24 25 25 25 24 23 25 24 23 22 21 25 25 24 22 25 26 26 26 27 32 30 29 28 28 29 28
33 34 38 39 38 37 34 23 21 20 20 21 22 23 24 24 23 24 24 22 22 22 23 21 22 21 23 25 25 25 21 23 26 26 26 27 27 29 28 29 30 30 30
34 37 38 38 37 38 26 23 18 20 21 22 22 24 25 24 23 22 21 21 19 20 20 18 21 21 19 24 24 25 21 21 24 26 27 28 28 29 31 31 29 29 29
36 38 38 37 37 26 24 21 20 20 21 23 24 24 26 21 22 20 18 18 16 16 16 15 18 19 20 23 24 23 22 22 23 24 28 29 29 32 34 31 29 29 29
38 38 37 36 26 25 23 22 22 21 23 23 24 25 24 21 21 18 18 15 14 13 13 13 16 19 18 22 24 23 25 24 23 23 24 28 31 32 33 31 30 29 30
38 38 30 25 24 25 23 23 22 22 23 25 26 28 23 21 21 19 18 16 16 16 15 15 15 16 19 19 23 25 27 26 24 23 26 29 32 32 33 33 31 31 32
37 29 25 24 22 24 23 22 21 24 25 27 27 27 25 20 20 20 19 19 19 19 17 16 16 17 18 21 23 25 26 29 26 26 28 29 31 31 31 32 32 32 32
27 25 24 21 22 24 23 22 23 27 28 25 24 20 23 22 21 21 20 21 22 20 16 15 16 18 18 20 24 25 26 27 27 28 28 28 29 29 29 31 32 32 32
27 26 23 23 24 25 25 25 24 26 25 23 20 19 23 23 22 22 22 22 22 20 16 16 18 20 21 22 22 23 22 26 26 27 26 25 25 25 26 29 30 31 32
26 24 22 22 24 25 25 27 26 24 18 17 20 21 22 22 22 22 21 21 23 20 19 19 21 22 23 24 25 25 23 24 24 23 23 22 23 23 25 26 28 29 30
24 25 27 21 19 21 22 25 25 22 22 18 19 23 22 21 21 22 23 27 28 26 24 27 25 26 27 27 26 24 23 23 22 20 20 21 22 22 23 24 25 27 28
Lifted_Index
2 3 4 6 7 8 9 9 10 11 12 11 11 11 12 13 13 14 14 15 15 15 15 15 16 16 16 16 15 15 15 15 15 14 13 12 11 11 11 10 10 11 11
2 3 4 6 7 8 9 10 10 11 11 11 11 12 12 13 13 14 14 15 15 15 15 15 15 16 15 15 15 15 15 14 14 14 12 11 10 10 10 11 11 11 11
3 4 5 6 7 9 10 10 11 11 11 11 12 12 12 13 13 13 14 14 15 15 15 15 15 15 15 15 14 14 14 13 13 13 12 11 10 10 10 10 11 11 11
4 5 6 7 9 10 10 11 11 11 11 12 12 12 13 13 14 14 14 15 15 15 15 15 15 15 14 14 13 13 13 12 12 12 12 12 12 11 10 10 10 11 11
6 6 8 9 10 11 11 11 11 11 12 13 13 14 14 14 14 15 15 15 15 15 14 14 14 14 13 13 12 12 12 12 12 12 12 12 12 12 11 10 10 11 11
7 7 9 10 10 11 11 11 11 12 13 14 14 15 15 15 15 15 15 15 15 14 14 14 13 13 12 12 12 11 11 11 12 12 12 13 12 12 11 11 10 10 11
8 8 9 10 10 11 11 12 12 13 14 14 15 15 15 15 15 15 15 15 14 14 13 13 13 12 12 11 11 11 12 12 12 13 13 13 12 12 12 12 11 11 11
9 9 10 10 10 11 11 12 13 13 14 14 14 14 15 15 15 15 15 14 14 14 13 13 12 12 11 11 11 12 12 12 13 13 13 13 12 12 12 12 12 12 12
9 9 9 10 10 11 11 12 13 13 13 14 14 14 15 15 15 15 15 14 14 13 13 12 12 11 11 11 11 12 12 13 13 13 13 13 12 11 11 12 12 13 13
8 8 9 9 10 11 12 12 13 13 13 14 14 15 15 15 15 15 14 14 13 13 12 12 11 11 11 11 12 12 12 13 13 13 12 12 12 12 12 12 12 12 12
8 8 8 9 10 11 11 12 12 12 13 14 14 15 15 15 15 15 14 13 13 12 11 11 11 11 12 12 12 12 13 13 13 12 12 12 12 12 11 11 11 11 12
8 7 8 8 9 10 11 12 12 12 14 14 15 15 15 15 15 14 13 13 12 11 11 11 11 11 12 12 12 12 13 14 13 12 12 12 11 11 10 10 10 10 11
7 7 8 8 9 10 10 11 12 13 14 14 15 15 15 15 14 13 12 12 11 11 10 11 11 11 12 12 12 13 13 13 12 12 12 11 10 9 9 9 9 9 9
7 7 8 8 9 9 10 11 12 13 14 15 15 15 15 14 13 12 11 11 10 10 10 11 11 11 12 12 12 13 13 13 12 12 11 10 9 8 8 8 8 8 8
7 7 7 8 9 9 10 11 13 14 14 15 15 15 14 13 12 11 10 10 10 10 10 11 11 11 12 12 13 13 13 12 11 11 10 9 9 8 7 7 7 7 6
6 7 7 8 9 9 11 12 13 14 15 15 15 13 12 12 11 10 10 10 10 11 11 11 11 11 12 12 13 13 13 11 11 10 10 9 8 8 7 7 6 5 5
6 7 8 8 9 10 11 13 14 14 15 15 14 12 11 11 11 10 10 11 11 11 12 12 12 12 12 13 14 13 12 11 10 10 9 9 8 7 7 6 5 5 4
7 7 8 9 10 11 12 13 14 15 15 14 13 12 11 11 10 11 11 12 12 12 13 13 13 13 13 14 14 13 11 10 10 9 9 8 7 7 6 5 5 4 4
8 8 9 10 11 12 13 14 14 15 15 14 12 11 11 10 10 11 12 12 13 13 13 13 13 13 14 14 14 13 12 11 10 9 8 8 7 6 5 5 4 4 4
9 10 11 11 11 12 13 14 15 15 15 13 12 11 10 10 10 11 12 12 13 13 13 13 13 14 14 14 14 13 12 11 10 9 8 7 7 6 5 5 5 4 4
11 11 11 11 12 13 14 14 15 15 14 13 11 11 10 10 10 10 11 12 13 13 13 13 13 13 14 14 14 13 12 11 10 9 9 8 7 6 6 5 5 5 5
11 11 11 12 13 14 14 15 15 15 14 12 11 11 10 10 10 10 11 11 12 13 13 13 13 13 14 14 14 13 12 11 11 10 10 9 8 7 7 6 6 6 6
11 11 11 12 13 15 15 16 15 14 13 12 11 11 11 10 10 10 11 11 12 12 13 13 13 13 14 14 14 14 12 11 11 11 11 10 10 9 8 8 8 8 8
11 11 12 12 14 15 16 15 15 14 13 12 11 11 11 10 10 11 11 11 12 12 13 13 13 13 14 15 15 15 13 11 11 11 11 11 11 10 10 10 10 9 9
12 12 12 13 14 15 15 15 15 14 13 12 11 11 11 10 10 11 11 11 12 12 13 13 13 14 14 15 15 15 14 12 11 11 11 11 12 11 11 11 11 11 11
12 12 12 13 14 15 15 15 15 14 13 12 11 11 11 11 10 11 11 11 12 12 13 13 14 14 14 14 15 15 15 13 12 11 11 12 12 12 12 12 12 12 11